DW8007 Weather Reports


Display with metric or nautical units.
time (UTC)temp
F
wind
direction
speed
MPH
gust
MPH
rain 1hr
in
rain 24hr
in
rain mn
in
humidity
%
barometer
mb
20260506090704 76 49 0.0 2.0 0.00 0.00 0.00 94 1004.8
20260506090203 76 180 1.0 2.0 0.00 0.00 0.00 94 1004.8
20260506085704 76 137 0.0 1.0 0.00 0.00 0.00 94 1004.6
20260506085203 76 229 0.0 1.0 0.00 0.00 0.00 94 1004.6
20260506084704 76 279 0.0 1.0 0.00 0.00 0.00 94 1004.7
20260506084203 77 68 0.0 2.0 0.00 0.00 0.00 93 1004.8
20260506083703 77 53 0.0 2.0 0.00 0.00 0.00 93 1004.8
20260506083204 77 149 0.0 2.0 0.00 0.00 0.00 93 1004.7
20260506082203 77 162 0.0 2.0 0.00 0.00 0.00 93 1004.8
20260506081704 77 130 0.0 1.0 0.00 0.00 0.00 92 1004.8
20260506081203 77 186 0.0 1.0 0.00 0.00 0.00 92 1004.6
20260506080704 77 160 0.0 2.0 0.00 0.00 0.00 92 1004.8
20260506080204 77 129 0.0 2.0 0.00 0.00 0.00 93 1005.1
20260506073203 77 200 0.0 3.0 0.00 0.00 0.00 90 1005.1
20260506072204 77 170 1.0 3.0 0.00 0.00 0.00 91 1005.2
20260506071704 77 4 0.0 3.0 0.00 0.00 0.00 91 1005.2
20260506071204 78 48 0.0 3.0 0.00 0.00 0.00 90 1005.4
20260506070204 77 142 1.0 3.0 0.00 0.00 0.00 91 1005.5
20260506061703 78 154 0.0 3.0 0.00 0.00 0.00 90 1006.0
20260506061204 78 173 0.0 3.0 0.00 0.00 0.00 90 1006.1
20260506060204 78 155 1.0 2.0 0.00 0.00 0.00 90 1006.0
20260506050704 78 179 2.0 5.0 0.00 0.00 0.00 90 1005.4
20260506050204 78 172 1.0 5.0 0.00 0.00 0.00 89 1005.7
20260506044704 78 157 1.0 3.0 0.00 0.00 0.00 89 1005.6
20260506043704 78 168 2.0 5.0 0.00 0.00 0.00 89 1005.4
20260506043204 78 174 2.0 5.0 0.00 0.00 0.00 89 1005.4
20260506042703 78 152 1.0 5.0 0.00 0.00 0.00 89 1005.3
20260506041703 78 157 1.0 5.0 0.00 0.00 0.00 89 1005.1
20260506041203 78 180 2.0 6.0 0.00 0.00 0.00 89 1005.2
20260506040203 78 173 1.0 5.0 0.00 0.00 0.00 89 1005.3
20260506035703 78 139 1.0 5.0 0.00 0.00 0.00 89 1005.1
20260506035204 78 153 2.0 5.0 0.00 0.00 0.00 89 1005.2
20260506034204 78 173 2.0 5.0 0.00 0.00 0.00 89 1005.1
20260506033704 78 158 2.0 5.0 0.00 0.00 0.00 89 1005.0
20260506033204 78 156 1.0 3.0 0.00 0.00 0.00 89 1005.1
20260506032704 78 115 1.0 5.0 0.00 0.00 0.00 89 1005.1
20260506032204 78 171 1.0 5.0 0.00 0.00 0.00 88 1005.1
20260506031703 78 153 1.0 5.0 0.00 0.00 0.00 88 1005.1
20260506031203 78 150 1.0 5.0 0.00 0.00 0.00 88 1005.2
20260506030703 78 152 1.0 5.0 0.00 0.00 0.00 88 1005.2
20260506030203 78 162 2.0 5.0 0.00 0.00 0.00 88 1004.8
20260506025704 78 165 1.0 3.0 0.00 0.00 0.00 89 1004.8
20260506025204 78 148 1.0 5.0 0.00 0.00 0.00 89 1004.7
20260506024704 78 141 2.0 5.0 0.00 0.00 0.00 89 1004.8
20260506024204 78 164 1.0 3.0 0.00 0.00 0.00 88 1004.5
20260506022704 78 164 3.0 6.0 0.00 0.00 0.00 88 1004.4
20260506022204 78 171 2.0 5.0 0.00 0.00 0.00 88 1004.3
20260506021704 78 171 1.0 5.0 0.00 0.00 0.00 88 1004.4
20260506021204 78 177 2.0 5.0 0.00 0.00 0.00 88 1004.2
20260506020204 78 151 1.0 6.0 0.00 0.00 0.00 87 1004.3
20260506015203 78 174 1.0 3.0 0.00 0.00 0.00 87 1004.2
20260506014703 78 174 2.0 5.0 0.00 0.00 0.00 87 1004.1
20260506014203 78 183 1.0 5.0 0.00 0.00 0.00 87 1003.8
20260506013703 78 182 2.0 5.0 0.00 0.00 0.00 87 1003.8
20260506013204 79 138 1.0 5.0 0.00 0.00 0.00 87 1003.8
20260506012704 79 156 2.0 5.0 0.00 0.00 0.00 86 1003.7
20260506012204 79 168 2.0 5.0 0.00 0.00 0.00 86 1003.7
20260506011703 79 158 2.0 5.0 0.00 0.00 0.00 86 1003.8
20260506011204 79 177 1.0 5.0 0.00 0.00 0.00 86 1003.6
20260506010703 79 157 2.0 5.0 0.00 0.00 0.00 86 1003.4
20260506010203 79 155 1.0 5.0 0.00 0.00 0.00 86 1003.5
20260506005704 79 214 1.0 6.0 0.00 0.00 0.00 86 1003.5
20260506005203 79 159 2.0 6.0 0.00 0.00 0.00 86 1003.5
20260506004704 79 168 2.0 5.0 0.00 0.00 0.00 86 1003.4
20260506003704 79 179 1.0 6.0 0.00 0.00 0.00 85 1003.2
20260506003204 79 162 2.0 6.0 0.00 0.00 0.00 85 1003.2
20260506002704 80 166 1.0 6.0 0.00 0.00 0.00 84 1003.2
20260506002203 80 159 3.0 8.0 0.00 0.00 0.00 84 1003.3
20260506001703 80 157 3.0 8.0 0.00 0.00 0.00 83 1003.1
20260506001204 80 171 2.0 7.0 0.00 0.00 0.00 84 1003.1
20260506000703 80 162 2.0 7.0 0.00 0.00 0.00 84 1003.0
20260506000205 80 163 3.0 7.0 0.00 0.00 0.00 83 1003.1
20260505235703 80 158 2.0 7.0 0.00 0.00 0.00 83 1003.1
20260505235204 80 168 3.0 7.0 0.00 0.00 0.00 83 1002.9
20260505234704 80 155 3.0 6.0 0.00 0.00 0.00 82 1003.1
20260505234204 80 153 2.0 7.0 0.00 0.00 0.00 82 1003.1
20260505233704 80 177 3.0 7.0 0.00 0.00 0.00 82 1003.1
20260505233204 80 163 3.0 7.0 0.00 0.00 0.00 82 1003.0
20260505232204 81 171 2.0 8.0 0.00 0.00 0.00 82 1003.2
20260505231703 81 171 3.0 7.0 0.00 0.00 0.00 81 1003.0
20260505231203 80 178 2.0 6.0 0.00 0.00 0.00 82 1003.2
20260505230704 80 169 1.0 6.0 0.00 0.00 0.00 82 1003.0
20260505230203 81 163 2.0 6.0 0.00 0.00 0.00 82 1003.2
20260505225704 80 175 1.0 6.0 0.00 0.00 0.00 82 1003.1
20260505225204 80 169 2.0 6.0 0.00 0.00 0.00 82 1003.2
20260505224203 80 168 2.0 6.0 0.00 0.00 0.00 82 1003.5
20260505223704 81 159 1.0 6.0 0.00 0.00 0.00 81 1003.4
20260505222704 81 163 2.0 6.0 0.00 0.00 0.00 81 1003.5
20260505222204 81 164 2.0 5.0 0.00 0.00 0.00 81 1003.5
20260505221703 81 145 1.0 6.0 0.00 0.00 0.00 80 1003.6
20260505221204 82 163 2.0 6.0 0.00 0.00 0.00 79 1003.6
20260505220704 81 155 2.0 6.0 0.00 0.00 0.00 80 1003.5
20260505220203 81 161 1.0 6.0 0.00 0.00 0.00 79 1003.6
20260505215703 82 171 2.0 6.0 0.00 0.00 0.00 79 1003.5
20260505215204 82 162 2.0 5.0 0.00 0.00 0.00 79 1003.4
20260505214704 82 158 2.0 5.0 0.00 0.00 0.00 79 1003.6
20260505213203 82 144 2.0 6.0 0.00 0.00 0.00 79 1003.8
20260505212703 82 158 0.0 5.0 0.00 0.00 0.00 79 1004.0
20260505212203 82 168 1.0 6.0 0.00 0.00 0.00 79 1004.1
20260505211703 82 162 2.0 6.0 0.00 0.00 0.00 79 1004.3
20260505211204 82 160 2.0 6.0 0.00 0.00 0.00 78 1004.0
20260505210704 82 162 2.0 6.0 0.00 0.00 0.00 77 1004.2
20260505210204 83 187 2.0 7.0 0.00 0.00 0.00 78 1004.2
20260505205704 82 166 1.0 7.0 0.00 0.00 0.00 78 1004.2
20260505205203 83 162 3.0 7.0 0.00 0.00 0.00 77 1004.2
20260505204203 84 141 2.0 6.0 0.00 0.00 0.00 75 1004.5
20260505203703 84 160 1.0 5.0 0.00 0.00 0.00 76 1004.3
20260505202704 83 157 2.0 3.0 0.00 0.00 0.00 76 1004.5
20260505202204 83 137 1.0 5.0 0.00 0.00 0.00 77 1004.4
20260505201704 83 169 1.0 5.0 0.00 0.00 0.00 77 1004.4
20260505200704 83 151 2.0 3.0 0.00 0.00 0.00 78 1004.8
20260505195703 83 125 1.0 7.0 0.00 0.00 0.00 76 1004.8
20260505195204 84 174 3.0 7.0 0.00 0.00 0.00 74 1004.9
20260505194703 84 174 3.0 7.0 0.00 0.00 0.00 73 1004.9
20260505194204 84 181 4.0 7.0 0.00 0.00 0.00 73 1004.9
20260505193704 83 183 3.0 7.0 0.00 0.00 0.00 73 1004.9
20260505193203 83 176 3.0 6.0 0.00 0.00 0.00 73 1005.1
20260505192704 83 178 2.0 6.0 0.00 0.00 0.00 75 1005.1
20260505192204 84 173 2.0 5.0 0.00 0.00 0.00 73 1005.2
20260505191703 84 164 3.0 7.0 0.00 0.00 0.00 73 1005.2
20260505191203 84 203 2.0 7.0 0.00 0.00 0.00 74 1005.1
20260505190704 83 178 3.0 7.0 0.00 0.00 0.00 75 1005.2
20260505190204 82 182 3.0 6.0 0.00 0.00 0.00 76 1005.3
20260505185703 82 182 2.0 6.0 0.00 0.00 0.00 76 1005.4
20260505185203 83 153 2.0 6.0 0.00 0.00 0.00 76 1005.4
20260505184704 82 174 3.0 7.0 0.00 0.00 0.00 76 1005.3
20260505184204 82 176 3.0 7.0 0.00 0.00 0.00 77 1005.4
20260505183704 82 189 3.0 7.0 0.00 0.00 0.00 76 1005.5
20260505183204 83 175 2.0 5.0 0.00 0.00 0.00 75 1005.7
20260505182703 83 206 2.0 6.0 0.00 0.00 0.00 75 1005.5
20260505182204 83 171 2.0 7.0 0.00 0.00 0.00 75 1005.4
20260505181704 83 182 4.0 7.0 0.00 0.00 0.00 74 1005.4
20260505180704 82 183 2.0 6.0 0.00 0.00 0.00 75 1005.7
20260505180204 82 139 2.0 6.0 0.00 0.00 0.00 77 1005.6
20260505175704 82 225 2.0 7.0 0.00 0.00 0.00 78 1005.8
20260505175203 81 190 3.0 7.0 0.00 0.00 0.00 78 1005.6
20260505174203 81 207 2.0 5.0 0.00 0.00 0.00 80 1005.9
20260505173703 81 169 2.0 5.0 0.00 0.00 0.00 80 1006.0
20260505173203 80 199 0.0 5.0 0.00 0.00 0.00 81 1005.9
20260505172704 80 193 2.0 5.0 0.00 0.00 0.00 81 1005.9
20260505172204 80 186 1.0 5.0 0.00 0.00 0.00 82 1006.1
20260505171704 80 174 3.0 5.0 0.00 0.00 0.00 82 1006.1
20260505171203 80 190 2.0 5.0 0.00 0.00 0.00 83 1006.2
20260505170204 80 172 3.0 5.0 0.00 0.00 0.00 82 1006.0
20260505165704 80 203 1.0 5.0 0.00 0.00 0.00 83 1006.1
20260505165203 80 195 2.0 5.0 0.00 0.00 0.00 83 1006.1
20260505164704 80 269 1.0 3.0 0.00 0.00 0.00 84 1006.2
20260505164203 79 293 0.0 3.0 0.00 0.00 0.00 84 1006.2
20260505163704 80 263 1.0 5.0 0.00 0.00 0.00 84 1006.1
20260505163204 80 273 1.0 5.0 0.00 0.00 0.00 83 1006.1
20260505162704 79 189 2.0 5.0 0.00 0.00 0.00 84 1006.2
20260505162204 79 192 1.0 5.0 0.00 0.00 0.00 85 1006.2
20260505161704 79 169 3.0 5.0 0.00 0.00 0.00 85 1006.2
20260505161204 78 193 3.0 5.0 0.00 0.00 0.00 86 1006.0
20260505160704 78 186 1.0 5.0 0.00 0.00 0.00 87 1006.2
20260505160204 78 236 1.0 3.0 0.00 0.00 0.00 89 1006.1
20260505153204 77 184 1.0 6.0 0.00 0.00 0.00 90 1006.2
20260505152704 77 193 1.0 2.0 0.00 0.00 0.00 90 1005.9
20260505152203 77 52 0.0 3.0 0.00 0.00 0.00 90 1006.0
20260505151704 77 237 0.0 3.0 0.00 0.00 0.00 91 1006.1
20260505151204 77 158 1.0 3.0 0.00 0.00 0.00 91 1006.1
20260505150705 76 172 1.0 3.0 0.00 0.00 0.00 92 1006.2
20260505140204 75 52 0.0 1.0 0.00 0.00 0.00 93 1006.0
20260505130204 74 165 0.0 3.0 0.00 0.00 0.00 93 1005.7
20260505124704 74 174 1.0 3.0 0.00 0.00 0.00 93 1005.4
20260505124203 74 180 1.0 3.0 0.00 0.00 0.00 93 1005.5
20260505123703 74 184 1.0 3.0 0.00 0.00 0.00 93 1005.4
20260505123204 74 154 1.0 3.0 0.00 0.00 0.00 93 1005.6
20260505122704 74 176 1.0 3.0 0.00 0.00 0.00 93 1005.4
20260505121704 73 176 1.0 3.0 0.00 0.00 0.00 94 1005.3
20260505121203 73 184 1.0 3.0 0.00 0.00 0.00 94 1005.2
20260505120703 73 168 1.0 3.0 0.00 0.00 0.00 94 1005.2
20260505120204 73 179 1.0 2.0 0.00 0.00 0.00 94 1005.0
20260505115703 73 8 1.0 2.0 0.00 0.00 0.00 94 1005.1
20260505115203 73 137 0.0 2.0 0.00 0.00 0.00 94 1005.3
20260505114704 73 29 0.0 2.0 0.00 0.00 0.00 94 1005.4
20260505114204 72 177 0.0 2.0 0.00 0.00 0.00 94 1005.3
20260505113204 72 275 0.0 2.0 0.00 0.00 0.00 94 1005.4
20260505112703 72 159 0.0 2.0 0.00 0.00 0.00 94 1005.2
20260505112204 72 46 0.0 1.0 0.00 0.00 0.00 94 1005.1
20260505111703 72 159 0.0 2.0 0.00 0.00 0.00 94 1005.1
20260505111204 72 139 0.0 2.0 0.00 0.00 0.00 94 1005.2
20260505110703 72 172 0.0 2.0 0.00 0.00 0.00 94 1005.1
20260505110203 72 170 0.0 2.0 0.00 0.00 0.00 94 1005.2
20260505102204 71 129 0.0 1.0 0.00 0.00 0.00 94 1005.1
20260505101704 71 182 0.0 2.0 0.00 0.00 0.00 94 1005.2
20260505101204 71 152 0.0 2.0 0.00 0.00 0.00 94 1005.2
20260505100704 71 166 1.0 2.0 0.00 0.00 0.00 94 1005.3
20260505100204 71 53 0.0 2.0 0.00 0.00 0.00 94 1005.2
20260505095703 71 133 0.0 2.0 0.00 0.00 0.00 94 1005.4
20260505095203 71 117 0.0 1.0 0.00 0.00 0.00 94 1005.4
20260505094703 71 112 0.0 1.0 0.00 0.00 0.00 94 1005.5
20260505094203 71 123 0.0 1.0 0.00 0.00 0.00 94 1005.3
20260505093203 71 51 0.0 1.0 0.00 0.00 0.00 94 1005.6
20260505092703 71 224 0.0 1.0 0.00 0.00 0.00 94 1005.6
20260505092203 70 130 0.0 1.0 0.00 0.00 0.00 94 1005.5
20260505091204 70 103 0.0 2.0 0.00 0.00 0.00 94 1005.5